Hickory, NC

3:32 AM EDT on August 28, 2016 (GMT -0400)
Hickory Regional

Weather History for KHKY - May, 2014

Change the Weather History Date:

Sunday, May 4, 2014

  Actual Average Record
Temperature  
Mean Temperature 70 °F -  
Max Temperature 86 °F 72 °F 88 °F (1949)
Min Temperature 54 °F 50 °F 35 °F (1971)
Cooling Degree Days 5    
Growing Degree Days 20 (Base 50)    
Moisture  
Dew Point 42 °F    
Average Humidity 37    
Maximum Humidity 59    
Minimum Humidity 19    
Precipitation  
Precipitation 0.00 in - - ()
Sea Level Pressure  
Sea Level Pressure 29.91 in    
Wind  
Wind Speed 5 mph (West)    
Max Wind Speed 14 mph    
Max Gust Speed 26 mph    
Visibility 10 miles    
Events      
Averages and records for this station are not official NWS values.
T = Trace of Precipitation, MM = Missing Value Source: NWS Daily Summary

Daily Weather History Graph

Daily Weather History Graph

Search for Another Location

Airport or City:

Trip Planner

Search our weather history database for the weather conditions in past years. The results will help you decide how hot, cold, wet, or windy it might be!

Date:

Astronomy

May. 04, 2014 Rise Set
Actual Time 6:30 AM EDT 8:14 PM EDT
Civil Twilight 6:02 AM EDT 8:42 PM EDT
Nautical Twilight 5:29 AM EDT 9:15 PM EDT
Astronomical Twilight 4:54 AM EDT 9:51 PM EDT
Moon 10:53 AM EDT (5/4) 12:18 AM EDT (5/4)
Length of Visible Light 14h 39m
Length of Day
13h 44m
Waxing Crescent, 27% of the Moon is Illuminated
May 4
Waxing Crescent
May 6
First Quarter
May 14
Full
May 21
Last Quarter
May 28
New

Hourly Weather History & Observations

Time (EDT) Temp. Dew Point Humidity Pressure Visibility Wind Dir Wind Speed Gust Speed Precip Events Conditions
12:53 AM 60.1 °F 39.9 °F 47% 29.93 in 10.0 mi West 3.5 mph - N/A   Clear
1:53 AM 59.0 °F 39.9 °F 49% 29.93 in 10.0 mi WSW 5.8 mph - N/A   Clear
2:53 AM 61.0 °F 37.9 °F 42% 29.92 in 10.0 mi WSW 3.5 mph - N/A   Clear
3:53 AM 61.0 °F 37.0 °F 41% 29.93 in 10.0 mi Calm Calm - N/A   Clear
4:53 AM 57.9 °F 37.0 °F 46% 29.94 in 10.0 mi Calm Calm - N/A   Clear
5:53 AM 54.0 °F 39.9 °F 59% 29.95 in 10.0 mi Calm Calm - N/A   Clear
6:53 AM 57.0 °F 37.9 °F 49% 29.97 in 10.0 mi Calm Calm - N/A   Clear
7:53 AM 60.1 °F 45.0 °F 57% 29.98 in 10.0 mi Calm Calm - N/A   Clear
8:53 AM 66.0 °F 44.1 °F 45% 29.97 in 10.0 mi SSW 3.5 mph - N/A   Clear
9:53 AM 70.0 °F 43.0 °F 38% 29.97 in 10.0 mi WSW 9.2 mph - N/A   Clear
10:53 AM 75.0 °F 46.0 °F 36% 29.97 in 10.0 mi Variable 4.6 mph - N/A   Clear
11:53 AM 77.0 °F 45.0 °F 32% 29.95 in 10.0 mi WSW 9.2 mph - N/A   Clear
12:53 PM 81.0 °F 43.0 °F 26% 29.92 in 10.0 mi West 13.8 mph 21.9 mph N/A   Clear
1:53 PM 82.9 °F 45.0 °F 26% 29.89 in 10.0 mi West 11.5 mph 26.5 mph N/A   Clear
2:53 PM 84.9 °F 42.1 °F 22% 29.87 in 10.0 mi WNW 10.4 mph 17.3 mph N/A   Partly Cloudy
3:53 PM 86.0 °F 39.9 °F 20% 29.84 in 10.0 mi WNW 10.4 mph 21.9 mph N/A   Clear
4:53 PM 86.0 °F 39.0 °F 19% 29.84 in 10.0 mi West 12.7 mph 25.3 mph N/A   Clear
5:53 PM 84.0 °F 39.9 °F 21% 29.84 in 10.0 mi WNW 11.5 mph 25.3 mph N/A   Clear
6:53 PM 82.0 °F 43.0 °F 25% 29.84 in 10.0 mi West 9.2 mph - N/A   Clear
7:53 PM 78.1 °F 44.1 °F 30% 29.86 in 10.0 mi West 8.1 mph - N/A   Clear
8:53 PM 73.9 °F 44.1 °F 34% 29.87 in 10.0 mi West 3.5 mph - N/A   Clear
9:53 PM 70.0 °F 46.0 °F 42% 29.87 in 10.0 mi SSW 3.5 mph - N/A   Clear
10:53 PM 71.1 °F 44.1 °F 38% 29.87 in 10.0 mi SW 5.8 mph - N/A   Clear
11:53 PM 70.0 °F 44.1 °F 39% 29.88 in 10.0 mi Calm Calm - N/A   Clear